This is the latest recevied weather packets stored in our database for station/object HP1MRA-15. If no packets are shown the sender has not sent any weather packets the latest 1 day(s).
| Time | Temp. | Humidity | Pressure | Rain* | Wind** | Luminosity | Snow |
|---|---|---|---|---|---|---|---|
| 1778078431 | 33.89° C | 72% | 1004.2 hPa | 0 mm | - | - | - |
| 1778077830 | 33.33° C | 72% | 1004.2 hPa | 0 mm | - | - | - |
| 1778077531 | 33.33° C | 72% | 1004.2 hPa | 0 mm | - | - | - |
| 1778076631 | 32.78° C | 77% | 1004.2 hPa | 0 mm | - | - | - |
| 1778075731 | 31.67° C | 80% | 1004.3 hPa | 0 mm | - | - | - |
| 1778075130 | 30.56° C | 83% | 1004.1 hPa | 0 mm | - | - | - |
| 1778074530 | 30° C | 82% | 1004.1 hPa | 0 mm | - | - | - |
| 1778073930 | 30° C | 85% | 1004.1 hPa | 0 mm | - | - | - |
| 1778073330 | 28.89° C | 86% | 1003.9 hPa | 0 mm | - | - | - |
| 1778072130 | 27.78° C | 88% | 1003.6 hPa | 0 mm | - | - | - |
| 1778071530 | 27.78° C | 88% | 1003.6 hPa | 0 mm | - | - | - |
| 1778070930 | 27.78° C | 88% | 1003.6 hPa | 0 mm | - | - | - |
| 1778070030 | 27.78° C | 88% | 1003.5 hPa | 0 mm | - | - | - |
| 1778069430 | 27.78° C | 89% | 1003.2 hPa | 0 mm | - | - | - |
| 1778068830 | 27.22° C | 89% | 1002.9 hPa | 0 mm | - | - | - |
| 1778067029 | 26.67° C | 89% | 1002.7 hPa | 0 mm | - | - | - |
| 1778066429 | 26.67° C | 88% | 1002.6 hPa | 0 mm | - | - | - |
| 1778064929 | 27.22° C | 87% | 1002.6 hPa | 0 mm | - | - | - |
| 1778064329 | 27.22° C | 88% | 1002.5 hPa | 0 mm | - | - | - |
| 1778063729 | 27.22° C | 88% | 1002.3 hPa | 0 mm | - | - | - |
| 1778063129 | 27.22° C | 88% | 1002.3 hPa | 0 mm | - | - | - |
| 1778061928 | 26.67° C | 88% | 1002.2 hPa | 0 mm | - | - | - |
| 1778061328 | 26.67° C | 89% | 1002.1 hPa | 0 mm | - | - | - |
| 1778060728 | 26.67° C | 89% | 1002.1 hPa | 0 mm | - | - | - |
| 1778059528 | 26.67° C | 88% | 1002 hPa | 0 mm | - | - | - |
* Rain latest hour (hover to see other rain measurements)
** Current wind speed in m/s (hover to see current wind gust speed)